Weather History for TJSJ - October, 2014

Change the Weather History Date:

Thursday, October 16, 2014

  Actual Average Record
Temperature  
Mean Temperature 85 °F 83 °F  
Max Temperature 91 °F 89 °F 94 °F (1994)
Min Temperature 79 °F 77 °F 71 °F (1964)
Degree Days  
Heating Degree Days 0 0  
Month to date heating degree days 0 0  
Since 1 July heating degree days 0 0  
Cooling Degree Days 20 18  
Month to date cooling degree days 313 288  
Year to date cooling degree days 5081 4700  
Growing Degree Days 35 (Base 50)    
Moisture  
Dew Point 76 °F    
Average Humidity 78    
Maximum Humidity 91    
Minimum Humidity 64    
Precipitation  
Precipitation 0.11 in 0.18 in 1.36 in (1913)
Month to date precipitation 1.80 2.62  
Year to date precipitation 40.94 42.01  
Sea Level Pressure  
Sea Level Pressure 29.92 in    
Wind  
Wind Speed 4 mph (ESE)    
Max Wind Speed 16 mph    
Max Gust Speed 22 mph    
Visibility 10 miles    
Events Rain    
T = Trace of Precipitation, MM = Missing Value Source: NWS Daily Summary

Daily Weather History Graph

Daily Weather History Graph

Search for Another Location

Airport or City:

Trip Planner

Search our weather history database for the weather conditions in past years. The results will help you decide how hot, cold, wet, or windy it might be!

Date:

Astronomy

Oct. 16, 2014 Rise Set
Actual Time 6:18 AM AST 6:00 PM AST
Civil Twilight 5:56 AM AST 6:22 PM AST
Nautical Twilight 5:30 AM AST 6:48 PM AST
Astronomical Twilight 5:05 AM AST 7:13 PM AST
Moon 12:16 AM AST (10/16) 1:20 PM AST (10/16)
Length of Visible Light 12h 26m
Length of Day
11h 42m
Last Quarter, 42% of the Moon is Illuminated
Oct 16
Last Quarter
Oct 23
New
Oct 30
First Quarter
Nov 6
Full
Nov 14
Last Quarter

Hourly Weather History & Observations

Time (AST) Temp. Heat Index Dew Point Humidity Pressure Visibility Wind Dir Wind Speed Gust Speed Precip Events Conditions
12:56 AM 80.1 °F 85.1 °F 75.0 °F 85% 29.94 in 10.0 mi Calm Calm - N/A   Clear
1:56 AM 80.1 °F 85.4 °F 75.9 °F 87% 29.92 in 10.0 mi Calm Calm - N/A   Clear
2:56 AM 79.0 °F - 75.0 °F 88% 29.91 in 10.0 mi South 3.5 mph - N/A   Partly Cloudy
3:56 AM 79.0 °F - 75.0 °F 88% 29.90 in 10.0 mi Calm Calm - N/A   Clear
4:56 AM 79.0 °F - 75.0 °F 88% 29.91 in 10.0 mi Calm Calm - N/A   Clear
5:56 AM 80.1 °F 85.4 °F 75.9 °F 87% 29.93 in 10.0 mi South 3.5 mph - N/A   Partly Cloudy
6:56 AM 81.0 °F 87.3 °F 75.9 °F 85% 29.95 in 10.0 mi SSW 3.5 mph - 0.01 in   Scattered Clouds
7:56 AM 82.9 °F 90.8 °F 75.9 °F 79% 29.96 in 10.0 mi South 4.6 mph - 0.02 in   Scattered Clouds
8:56 AM 84.9 °F 93.3 °F 75.0 °F 72% 29.98 in 10.0 mi SSE 3.5 mph - N/A   Scattered Clouds
9:56 AM 86.0 °F 96.9 °F 77.0 °F 74% 29.98 in 10.0 mi Calm Calm - N/A   Scattered Clouds
10:56 AM 90.0 °F 102.5 °F 77.0 °F 65% 29.96 in 10.0 mi Variable 6.9 mph - N/A   Scattered Clouds
11:56 AM 89.1 °F 101.4 °F 77.0 °F 67% 29.93 in 10.0 mi NNE 9.2 mph - N/A   Scattered Clouds
12:56 PM 89.1 °F 99.1 °F 75.0 °F 63% 29.91 in 10.0 mi NE 12.7 mph - N/A   Scattered Clouds
1:56 PM 90.0 °F 105.8 °F 79.0 °F 70% 29.88 in 10.0 mi NE 12.7 mph - N/A   Scattered Clouds
2:56 PM 89.1 °F 104.4 °F 79.0 °F 72% 29.87 in 10.0 mi ENE 13.8 mph - N/A   Scattered Clouds
3:56 PM 86.0 °F 98.3 °F 78.1 °F 77% 29.87 in 10.0 mi NE 10.4 mph - N/A   Scattered Clouds
4:56 PM 88.0 °F 100.2 °F 77.0 °F 70% 29.88 in 10.0 mi Calm Calm - N/A   Scattered Clouds
5:56 PM 86.0 °F 96.0 °F 75.9 °F 72% 29.89 in 10.0 mi SE 4.6 mph - N/A Rain Light Rain
6:56 PM 86.0 °F 96.0 °F 75.9 °F 72% 29.90 in 10.0 mi Calm Calm - 0.01 in   Scattered Clouds
7:56 PM 84.9 °F 93.3 °F 75.0 °F 72% 29.92 in 10.0 mi Variable 3.5 mph - N/A   Scattered Clouds
8:56 PM 82.9 °F 91.8 °F 77.0 °F 82% 29.94 in 10.0 mi East 5.8 mph - N/A   Scattered Clouds
9:56 PM 82.0 °F 89.4 °F 75.9 °F 82% 29.95 in 10.0 mi ENE 3.5 mph - N/A   Partly Cloudy
10:56 PM 82.9 °F 91.8 °F 77.0 °F 82% 29.95 in 10.0 mi Calm Calm - N/A   Partly Cloudy
11:56 PM 82.0 °F 91.0 °F 78.1 °F 88% 29.94 in 10.0 mi Calm Calm - N/A   Partly Cloudy